Location: Rio Negrinho
(26.2394°S, 49.4999°W)
Time: 02:15:26
(UTC+00:00)

SEDSat Delta rocket - Pass Details

Date: 07 October 2020
Orbit: 533 x 1000 km, 31.4° (Epoch: 20 October)

Event Time Altitude Azimuth Distance (km) Brightness Sun altitude
Rises 22:42:17 0° 265° (W) 3,534 8.5 -18.6°
Reaches altitude 10° 22:45:07 10° 259° (W) 2,525 7.4 -19.2°
Maximum altitude 22:50:57 50° 184° (S) 1,008 4.2 -20.5°
Enters shadow 22:53:26 29° 125° (SE) 1,371 4.5 -21.0°
